Regional Weather Roundup
Issued by NWS

Home | Current Version | Previous Version | Graphics & Text | Print | Product List | Glossary On
Versions: 1 2 3 4 5 6 7 8 9 10 11 12 13 14 15 16 17 18 19 20 21 22 23 24 25 26 27 28
000
ASUS45 KTFX 192010
RWRMT
MONTANA REGIONAL WEATHER ROUNDUP
NATIONAL WEATHER SERVICE GREAT FALLS MT
100 PM MST SUN FEB 19 2017

NOTE: "FAIR" INDICATES FEW OR NO CLOUDS BELOW 12000 FEET WITH NO
SIGNIFICANT WEATHER AND/OR OBSTRUCTIONS TO VISIBILITY.

MTZ001>007-043-192100-
WEST OF THE DIVIDE

CITY           SKY/WX    TMP DP  RH WIND       PRES   REMARKS
KALISPELL      CLOUDY    39  33  79 S13       29.52R WCI  31
MISSOULA       CLOUDY    43  34  70 SE6       29.53F
BUTTE          CLOUDY    40  26  57 S6        29.53S
MULLAN PASS    PTSUNNY   28  27  96 VRB5      29.49S
ANACONDA         N/A     46  23  39 S5        29.50F
DEER LODGE       N/A     41  30  65 N8        29.53F
EUREKA           N/A     41  30  65 SE9       29.49F
HAMILTON         N/A     48  27  43 S6        29.52F
LIBBY            N/A     39  36  87 CALM      29.50F
RONAN            N/A     39  37  92 CALM      29.61S
$$

MTZ008-052>055-192100-
SOUTHWEST MONTANA

CITY           SKY/WX    TMP DP  RH WIND       PRES   REMARKS
BOZEMAN        LGT SNOW  34  33  96 NE14      29.58S FOG     WCI  25
DILLON         PTSUNNY   43  33  68 NW5       29.54S
W YELLOWSTONE  LGT SNOW  32  28  86 SW26G35   29.60F VSB 3/4 WCI  18
ENNIS          CLOUDY    43  30  61 S17G25    29.58F
THREE FORKS      N/A     39  34  82 CALM      29.59F
$$

MTZ009-010-012-014-046-048-049-054-192100-
EAST SLOPES AND CENTRAL MONTANA

CITY           SKY/WX    TMP DP  RH WIND       PRES   REMARKS
CUT BANK       PTSUNNY   44  27  51 W14G23    29.44S
GREAT FALLS    CLOUDY    48  27  44 SW13      29.46R
MALMSTROM AFB  CLOUDY    48  28  45 SW20G30   29.46R
HELENA         CLOUDY    42  36  79 CALM      29.50R
AUGUSTA          N/A     46  20  37 SW14      29.44R
BOWMANS CRNR     N/A     44  26  48 SW24      29.44R
CHOTEAU          N/A     48  21  34 SW13      29.45S
POWER            N/A     47  26  45 SW13      29.44R
RAYNESFORD     PTSUNNY   49  28  43 W20       29.47R
ULM            CLOUDY    48  28  46 MISG      29.47R
$$

MTZ011-013-016-021-045-047-050-051-192100-
NORTH CENTRAL MONTANA

CITY           SKY/WX    TMP DP  RH WIND       PRES   REMARKS
HAVRE          CLOUDY    40  35  83 W6        29.44R
LEWISTOWN      PTSUNNY   50  34  54 NW8       29.46R
N BAR RANCH    PTSUNNY   52  30  43 NW10      29.46R
CHINOOK          N/A     37  34  87 W5        29.44R
DENTON         CLOUDY    51  28  40 W20G30    29.41R
FORT BENTON      N/A     54  25  32 MISG      29.46R
GEYSER         PTSUNNY   49  25  38 W18G28    29.44S
GRASS RANGE      N/A     51  34  51 W15       29.40S
JUDITH GAP     PTSUNNY   48  30  50 W15       29.47R
ROY              N/A     52  33  48 MISG      29.42R
STANFORD       PTSUNNY   45  32  59 W14       29.46R
WINIFRED       PTSUNNY   52  33  48 W9        29.43S
$$

MTZ017>020-022>027-061-062-192100-
NORTHEAST MONTANA

CITY           SKY/WX    TMP DP  RH WIND       PRES   REMARKS
GLASGOW        CLOUDY    35  32  88 E10       29.44S FOG     WCI  27
JORDAN           N/A     58  35  42 SW8       29.39F
SIDNEY         MOSUNNY   41  35  79 NE8       29.45F
WOLF POINT     CLOUDY    34  32  92 E12       29.46F FOG     WCI  25
PLENTYWOOD       N/A     32  32 100 E14       29.48F WCI  22
POPLAR           N/A     34  30  86 NE8       29.47F WCI  27
$$

MTZ028>42-056>058-192100-
SOUTHCENTRAL AND SOUTHEAST MONTANA

CITY           SKY/WX    TMP DP  RH WIND       PRES   REMARKS
BAKER          CLOUDY    54  37  52 SE6       29.43F
BILLINGS       CLOUDY    54  34  46 SW9       29.45R
LIVINGSTON     CLOUDY    44  32  62 N22G29    29.53R
MILES CITY     CLOUDY    49  34  56 W5        29.43S
BIG TIMBER     MOSUNNY   52  30  43 W26G35    29.48S
FORSYTH          N/A     48  36  61 CALM      29.41F
HARLOWTON        N/A     43  35  72 W32G44    29.49R
LAUREL           N/A     54  29  38 SW5       29.50R
$$

REGIONAL REPORTS...DAKOTAS

CITY           SKY/WX    TMP DP  RH WIND       PRES   REMARKS
WILLISTON      CLOUDY    37  32  82 E7        29.48F WCI  32
MINOT          CLOUDY    40  35  83 E9        29.51F
DICKINSON      CLOUDY    50  37  61 SE7       29.43S
BEACH            N/A    N/A N/A N/A MISG        N/A
CROSBY         CLOUDY    32  32 100 E16       29.53F WCI  21
TIOGA          CLOUDY    32  32 100 E12       29.49F FOG     WCI  23
WATFORD CITY     N/A     37  36  93 NE6       29.47S
BISMARCK       CLOUDY    43  35  73 SE10      29.51F
GRAND FORKS    CLOUDY    44  33  65 SE18      29.67F
FARGO          SUNNY     54  42  64 SE26G39   29.65F
BUFFALO SD       N/A     65  32  29 SW21G26   29.38F
RAPID CITY     CLOUDY    68  31  25 SW18      29.48F
$$

REGIONAL REPORTS...WYOMING/IDAHO/WASHINGTON

CITY           SKY/WX    TMP DP  RH WIND       PRES   REMARKS
GILLETTE       CLOUDY    60  33  36 SW28G41   29.43F
SHERIDAN       CLOUDY    47  32  56 VRB6      29.43R
BUFFALO WY     CLOUDY    63  26  24 SW17G23   29.44F
CODY           SUNNY     54  26  34 W10G18    29.50F
YELLOWSTONE LA   N/A     33  27  78 W8        29.63S WCI  26
IDAHO FALLS    PTSUNNY   39  37  92 SW20      29.67R WCI  29
SALMON         PTSUNNY   43  34  70 E13       29.55F
BOISE          CLOUDY    46  36  68 S7        29.64F
SPOKANE        PTSUNNY   37  34  89 SE3       29.53S
$$

REGIONAL REPORTS...ALBERTA

CITY           SKY/WX    TMP DP  RH WIND       PRES   REMARKS
EDMONTON       CLOUDY    34  32  93 W6        29.40  WCI  29
CALGARY        CLOUDY    32  28  86 N7        29.38S WCI  26
LETHBRIDGE     PTSUNNY   46  27  46 W20G25    29.40R
MEDICINE HAT   PTSUNNY   45  36  70 SW14      29.40S
WATERTON GATE    N/A     39  25  56 SW13G21     N/A  WCI  32
CARDSTON         N/A     46  21  36 SW6         N/A
MILK RIVER       N/A     46  27  46 W17         N/A
$$

REGIONAL REPORTS...SASKATCHEWAN

CITY           SKY/WX    TMP DP  RH WIND       PRES   REMARKS
SWIFT CURRENT  CLOUDY    39  34  81 S13G21    29.40F WCI  32
REGINA         CLOUDY    36  32  87 E20G26    29.52F WCI  25
SASKATOON      CLOUDY    36  30  80 SE23G30   29.52F WCI  24
CYPRESS HILLS    N/A     36  32  87 W7          N/A  WCI  30
VAL MARIE        N/A     45  34  65 S7          N/A
ROCKGLEN         N/A     34  32  93 SE10        N/A  WCI  26
ASSINIBOIA       N/A     36  34  93 S5          N/A
$$




USA.gov is the U.S. government's official web portal to all federal, state and local government web resources and services.